Skip Page Navigation
NASA JPL Caltech
NASA Logo - Jet Propulsion Laboratory + View the NASA Portal
+ Near-Earth Object (NEO) Program
Search JPL
JPL Home Earth Solar System Stars & Galaxies Technology
JPL Solar System Dynamics
BODIES ORBITS EPHEMERIDES TOOLS PHYSICAL DATA DISCOVERY FAQ SITE MAP
JPL Small-Body Database Browser
Search: [ help ]  
5725 Nordlingen (1988 BK2)
Classification: Main-belt Asteroid          SPK-ID: 2005725
Ephemeris | Orbit Diagram | Orbital Elements | Physical Parameters | Discovery Circumstances | Close-Approach Data ]

[ show orbit diagram ]
Orbital Elements at Epoch 2457000.5 (2014-Dec-09.0) TDB
Reference: JPL 13 (heliocentric ecliptic J2000)
 Element Value Uncertainty (1-sigma)   Units 
e .0567956254462395 5.6114e-08  
a 2.681126919789026 2.2304e-08 AU
q 2.528850639478859 1.5388e-07 AU
i 22.54444655679916 1.0778e-05 deg
node 55.28269448947569 1.6135e-05 deg
peri 76.56031760285313 0.0001209 deg
M 26.98108017664424 0.0001153 deg
tp 2456880.320243873760
(2014-Aug-10.82024387)
0.00051349 JED
period 1603.520389924854
4.39
2.0009e-05
5.478e-08
d
yr
n .224506032016762 2.8014e-09 deg/d
Q 2.833403200099193 2.3571e-08 AU
  Orbit Determination Parameters
   # obs. used (total)      776  
   data-arc span      22689 days (62.12 yr)  
   first obs. used      1953-02-15  
   last obs. used      2015-03-31  
   planetary ephem.      DE431  
   SB-pert. ephem.      SB431-BIG16  
   condition code      0  
   fit RMS      .47178  
   data source      ORB  
   producer      Otto Matic  
   solution date      2015-Apr-07 16:22:46  

Additional Information
 Earth MOID = 1.61703 AU 
 T_jup = 3.265 
[ show covariance matrix ]

Ephemeris | Orbit Diagram | Orbital Elements | Physical Parameters | Discovery Circumstances | Close-Approach Data ]

Physical Parameter Table
Parameter Symbol Value Units Sigma Reference Notes
absolute magnitude H 12.7 mag n/a MPO279575  

5725 Nordlingen (1988 BK2)          Discovered 1988-Jan-23 by Shoemaker, C. S. at Palomar
Reference: DISCOVERY.DBLast Updated: 2003-08-29

[ show close-approach data ]
Alternate Designations
 1988 BK2 = 1991 VM3 
Ephemeris | Orbit Diagram | Orbital Elements | Physical Parameters | Discovery Circumstances | Close-Approach Data ]
ABOUT SSD CREDITS/AWARDS PRIVACY/COPYRIGHT GLOSSARY LINKS
FirstGov 2015-Apr-27 10:34 UT
(server date/time)  
NASA Home Page
Site Manager:   Ryan S. Park
Webmaster  Alan B. Chamberlin